contact:dominique.lefevre@mio.osupytheas.fr, maurice.libes@osupytheas.fr, didier.mallarino@osupytheas.fr
Project:EMSO http://www.emso-fr.org/EMSO-France
Depth: 2436.0 m
Title:EMSO Ligure Ouest : Data MII capteur OXYGEN
DateTime,Latitude,Longitude,Optode-Type,Optode_Serial,Oxygen,Saturation_Oxygen,Temperature
DateTime,Latitude,Longitude,Optode-Type,Optode_Serial,µmol.l-1,%,degC
2019-06-01T00:01:24,42.805,6.029,4330,1995,195.711,59.850,13.287
2019-06-01T00:04:24,42.805,6.029,4330,1995,195.665,59.836,13.287
2019-06-01T00:07:24,42.805,6.029,4330,1995,195.703,59.848,13.287
2019-06-01T00:10:24,42.805,6.029,4330,1995,195.717,59.852,13.287
2019-06-01T00:13:24,42.805,6.029,4330,1995,195.740,59.859,13.287
2019-06-01T00:16:24,42.805,6.029,4330,1995,195.711,59.850,13.287
2019-06-01T00:19:24,42.805,6.029,4330,1995,195.685,59.842,13.287
2019-06-01T00:22:24,42.805,6.029,4330,1995,195.718,59.853,13.288
2019-06-01T00:25:24,42.805,6.029,4330,1995,195.688,59.844,13.288
2019-06-01T00:28:24,42.805,6.029,4330,1995,195.697,59.846,13.287
2019-06-01T00:31:24,42.805,6.029,4330,1995,195.698,59.847,13.288
2019-06-01T00:34:24,42.805,6.029,4330,1995,195.738,59.859,13.288
2019-06-01T00:37:24,42.805,6.029,4330,1995,195.755,59.864,13.287
2019-06-01T00:40:24,42.805,6.029,4330,1995,195.766,59.868,13.288
2019-06-01T00:43:24,42.805,6.029,4330,1995,195.687,59.843,13.288
2019-06-01T00:46:24,42.805,6.029,4330,1995,195.726,59.855,13.288
2019-06-01T00:49:24,42.805,6.029,4330,1995,195.737,59.859,13.288
2019-06-01T00:52:24,42.805,6.029,4330,1995,195.732,59.857,13.288
2019-06-01T00:55:24,42.805,6.029,4330,1995,195.758,59.865,13.288
2019-06-01T00:58:24,42.805,6.029,4330,1995,195.716,59.853,13.288
2019-06-01T01:01:24,42.805,6.029,4330,1995,195.775,59.871,13.288
2019-06-01T01:04:24,42.805,6.029,4330,1995,195.768,59.869,13.288
2019-06-01T01:07:24,42.805,6.029,4330,1995,195.710,59.851,13.288
2019-06-01T01:10:24,42.805,6.029,4330,1995,195.746,59.862,13.288
2019-06-01T01:13:24,42.805,6.029,4330,1995,195.693,59.846,13.288
2019-06-01T01:16:24,42.805,6.029,4330,1995,195.712,59.851,13.288
2019-06-01T01:19:24,42.805,6.029,4330,1995,195.806,59.880,13.288
2019-06-01T01:22:24,42.805,6.029,4330,1995,195.688,59.844,13.288
2019-06-01T01:25:24,42.805,6.029,4330,1995,195.717,59.852,13.288
2019-06-01T01:28:24,42.805,6.029,4330,1995,195.706,59.849,13.288
2019-06-01T01:31:24,42.805,6.029,4330,1995,195.708,59.850,13.288
2019-06-01T01:34:24,42.805,6.029,4330,1995,195.716,59.852,13.288
2019-06-01T01:37:24,42.805,6.029,4330,1995,195.662,59.835,13.287
2019-06-01T01:40:24,42.805,6.029,4330,1995,195.708,59.849,13.287
2019-06-01T01:43:24,42.805,6.029,4330,1995,195.729,59.856,13.287
2019-06-01T01:46:24,42.805,6.029,4330,1995,195.676,59.839,13.287
2019-06-01T01:49:24,42.805,6.029,4330,1995,195.696,59.846,13.287
2019-06-01T01:52:24,42.805,6.029,4330,1995,195.664,59.835,13.287
2019-06-01T01:55:24,42.805,6.029,4330,1995,195.720,59.853,13.287
2019-06-01T01:58:24,42.805,6.029,4330,1995,195.712,59.850,13.287
2019-06-01T02:01:24,42.805,6.029,4330,1995,195.771,59.868,13.287
2019-06-01T02:04:24,42.805,6.029,4330,1995,195.843,59.890,13.287
2019-06-01T02:07:24,42.805,6.029,4330,1995,195.788,59.873,13.287
2019-06-01T02:10:24,42.805,6.029,4330,1995,195.698,59.846,13.287
2019-06-01T02:13:24,42.805,6.029,4330,1995,195.721,59.853,13.287
2019-06-01T02:16:24,42.805,6.029,4330,1995,195.735,59.857,13.287
2019-06-01T02:19:24,42.805,6.029,4330,1995,195.763,59.866,13.287
2019-06-01T02:22:24,42.805,6.029,4330,1995,195.763,59.866,13.287
2019-06-01T02:25:24,42.805,6.029,4330,1995,195.764,59.866,13.287
2019-06-01T02:28:24,42.805,6.029,4330,1995,195.793,59.875,13.287
2019-06-01T02:31:24,42.805,6.029,4330,1995,195.769,59.868,13.287
2019-06-01T02:34:24,42.805,6.029,4330,1995,195.781,59.872,13.287
2019-06-01T02:37:24,42.805,6.029,4330,1995,195.740,59.859,13.287
2019-06-01T02:40:24,42.805,6.029,4330,1995,195.795,59.876,13.287
2019-06-01T02:43:24,42.805,6.029,4330,1995,195.716,59.852,13.287
2019-06-01T02:46:24,42.805,6.029,4330,1995,195.784,59.873,13.288
2019-06-01T02:49:24,42.805,6.029,4330,1995,195.729,59.856,13.288
2019-06-01T02:52:24,42.805,6.029,4330,1995,195.732,59.857,13.288
2019-06-01T02:55:24,42.805,6.029,4330,1995,195.767,59.868,13.288
2019-06-01T02:58:24,42.805,6.029,4330,1995,195.773,59.870,13.288
2019-06-01T03:01:24,42.805,6.029,4330,1995,195.719,59.854,13.288
2019-06-01T03:04:24,42.805,6.029,4330,1995,195.746,59.861,13.288
2019-06-01T03:07:24,42.805,6.029,4330,1995,195.768,59.868,13.288
2019-06-01T03:10:24,42.805,6.029,4330,1995,195.758,59.866,13.288
2019-06-01T03:13:24,42.805,6.029,4330,1995,195.743,59.861,13.288
2019-06-01T03:16:24,42.805,6.029,4330,1995,195.719,59.854,13.288
2019-06-01T03:19:24,42.805,6.029,4330,1995,195.707,59.850,13.288
2019-06-01T03:22:24,42.805,6.029,4330,1995,195.723,59.855,13.288
2019-06-01T03:25:24,42.805,6.029,4330,1995,195.724,59.855,13.288
2019-06-01T03:28:24,42.805,6.029,4330,1995,195.746,59.862,13.288
2019-06-01T03:31:24,42.805,6.029,4330,1995,195.717,59.853,13.288
2019-06-01T03:34:24,42.805,6.029,4330,1995,195.726,59.856,13.288
2019-06-01T03:37:24,42.805,6.029,4330,1995,195.698,59.847,13.288
2019-06-01T03:40:24,42.805,6.029,4330,1995,195.677,59.841,13.288
2019-06-01T03:43:24,42.805,6.029,4330,1995,195.748,59.862,13.288
2019-06-01T03:46:24,42.805,6.029,4330,1995,195.667,59.837,13.288
2019-06-01T03:49:24,42.805,6.029,4330,1995,195.691,59.845,13.288
2019-06-01T03:52:24,42.805,6.029,4330,1995,195.745,59.861,13.288
2019-06-01T03:55:23,42.805,6.029,4330,1995,195.716,59.852,13.287
2019-06-01T03:58:23,42.805,6.029,4330,1995,195.753,59.863,13.287
2019-06-01T04:01:23,42.805,6.029,4330,1995,195.719,59.852,13.287
2019-06-01T04:04:23,42.805,6.029,4330,1995,195.708,59.849,13.287
2019-06-01T04:07:23,42.805,6.029,4330,1995,195.743,59.860,13.287
2019-06-01T04:10:23,42.805,6.029,4330,1995,195.696,59.845,13.287
2019-06-01T04:13:23,42.805,6.029,4330,1995,195.736,59.857,13.287
2019-06-01T04:16:23,42.805,6.029,4330,1995,195.763,59.866,13.287
2019-06-01T04:19:23,42.805,6.029,4330,1995,195.734,59.857,13.287
2019-06-01T04:22:23,42.805,6.029,4330,1995,195.714,59.851,13.287
2019-06-01T04:25:24,42.805,6.029,4330,1995,195.703,59.848,13.287
2019-06-01T04:28:24,42.805,6.029,4330,1995,195.706,59.849,13.288
2019-06-01T04:31:23,42.805,6.029,4330,1995,195.708,59.849,13.287
2019-06-01T04:34:23,42.805,6.029,4330,1995,195.646,59.830,13.287
2019-06-01T04:37:23,42.805,6.029,4330,1995,195.757,59.864,13.287
2019-06-01T04:40:23,42.805,6.029,4330,1995,195.760,59.865,13.287
2019-06-01T04:43:23,42.805,6.029,4330,1995,195.662,59.835,13.287
2019-06-01T04:46:23,42.805,6.029,4330,1995,195.691,59.844,13.288
2019-06-01T04:49:23,42.805,6.029,4330,1995,195.740,59.859,13.288
2019-06-01T04:52:23,42.805,6.029,4330,1995,195.723,59.854,13.287
2019-06-01T04:55:23,42.805,6.029,4330,1995,195.705,59.849,13.288
2019-06-01T04:58:23,42.805,6.029,4330,1995,195.730,59.856,13.288
2019-06-01T05:01:23,42.805,6.029,4330,1995,195.747,59.862,13.288
2019-06-01T05:04:23,42.805,6.029,4330,1995,195.764,59.867,13.288
2019-06-01T05:07:23,42.805,6.029,4330,1995,195.642,59.830,13.288
2019-06-01T05:10:23,42.805,6.029,4330,1995,195.705,59.850,13.288
2019-06-01T05:13:23,42.805,6.029,4330,1995,195.730,59.857,13.288
2019-06-01T05:16:23,42.805,6.029,4330,1995,195.644,59.830,13.288
2019-06-01T05:19:23,42.805,6.029,4330,1995,195.709,59.850,13.288
2019-06-01T05:22:23,42.805,6.029,4330,1995,195.720,59.854,13.288
2019-06-01T05:25:23,42.805,6.029,4330,1995,195.693,59.846,13.288
2019-06-01T05:28:23,42.805,6.029,4330,1995,195.672,59.839,13.288
2019-06-01T05:31:23,42.805,6.029,4330,1995,195.674,59.840,13.288
2019-06-01T05:34:23,42.805,6.029,4330,1995,195.633,59.827,13.288
2019-06-01T05:37:23,42.805,6.029,4330,1995,195.719,59.854,13.288
2019-06-01T05:40:23,42.805,6.029,4330,1995,195.710,59.851,13.288
2019-06-01T05:43:23,42.805,6.029,4330,1995,195.717,59.853,13.288
2019-06-01T05:46:23,42.805,6.029,4330,1995,195.682,59.842,13.288
2019-06-01T05:49:23,42.805,6.029,4330,1995,195.695,59.846,13.288
2019-06-01T05:52:23,42.805,6.029,4330,1995,195.695,59.846,13.288
2019-06-01T05:55:23,42.805,6.029,4330,1995,195.699,59.847,13.288
2019-06-01T05:58:23,42.805,6.029,4330,1995,195.635,59.827,13.288
2019-06-01T06:01:23,42.805,6.029,4330,1995,195.695,59.846,13.288
2019-06-01T06:04:23,42.805,6.029,4330,1995,195.650,59.832,13.288
2019-06-01T06:07:23,42.805,6.029,4330,1995,195.635,59.827,13.287
2019-06-01T06:10:23,42.805,6.029,4330,1995,195.686,59.843,13.287
2019-06-01T06:13:23,42.805,6.029,4330,1995,195.683,59.842,13.287
2019-06-01T06:16:23,42.805,6.029,4330,1995,195.730,59.856,13.287
2019-06-01T06:19:23,42.805,6.029,4330,1995,195.671,59.838,13.287
2019-06-01T06:22:23,42.805,6.029,4330,1995,195.744,59.860,13.287
2019-06-01T06:25:23,42.805,6.029,4330,1995,195.659,59.834,13.287
2019-06-01T06:28:23,42.805,6.029,4330,1995,195.674,59.839,13.287
2019-06-01T06:31:23,42.805,6.029,4330,1995,195.668,59.837,13.287
2019-06-01T06:34:23,42.805,6.029,4330,1995,195.695,59.845,13.287
2019-06-01T06:37:23,42.805,6.029,4330,1995,195.658,59.834,13.287
2019-06-01T06:40:23,42.805,6.029,4330,1995,195.660,59.834,13.287
2019-06-01T06:43:23,42.805,6.029,4330,1995,195.666,59.836,13.287
2019-06-01T06:46:23,42.805,6.029,4330,1995,195.602,59.817,13.287
2019-06-01T06:49:23,42.805,6.029,4330,1995,195.638,59.828,13.288
2019-06-01T06:52:23,42.805,6.029,4330,1995,195.600,59.817,13.287
2019-06-01T06:55:23,42.805,6.029,4330,1995,195.654,59.833,13.288
2019-06-01T06:58:23,42.805,6.029,4330,1995,195.648,59.831,13.288
2019-06-01T07:01:23,42.805,6.029,4330,1995,195.592,59.814,13.288
2019-06-01T07:04:23,42.805,6.029,4330,1995,195.605,59.818,13.288
2019-06-01T07:07:23,42.805,6.029,4330,1995,195.576,59.809,13.287
2019-06-01T07:10:23,42.805,6.029,4330,1995,195.619,59.823,13.288
2019-06-01T07:13:23,42.805,6.029,4330,1995,195.648,59.831,13.288
2019-06-01T07:16:23,42.805,6.029,4330,1995,195.584,59.812,13.288
2019-06-01T07:19:23,42.805,6.029,4330,1995,195.564,59.806,13.288
2019-06-01T07:22:23,42.805,6.029,4330,1995,195.586,59.813,13.288
2019-06-01T07:25:23,42.805,6.029,4330,1995,195.582,59.812,13.288
2019-06-01T07:28:23,42.805,6.029,4330,1995,195.606,59.819,13.288
2019-06-01T07:31:23,42.805,6.029,4330,1995,195.653,59.833,13.288
2019-06-01T07:34:23,42.805,6.029,4330,1995,195.606,59.819,13.288
2019-06-01T07:37:23,42.805,6.029,4330,1995,195.605,59.819,13.288
2019-06-01T07:40:23,42.805,6.029,4330,1995,195.575,59.809,13.288
2019-06-01T07:43:23,42.805,6.029,4330,1995,195.579,59.811,13.288
2019-06-01T07:46:23,42.805,6.029,4330,1995,195.591,59.815,13.288
2019-06-01T07:49:23,42.805,6.029,4330,1995,195.543,59.800,13.288
2019-06-01T07:52:23,42.805,6.029,4330,1995,195.608,59.819,13.288
2019-06-01T07:55:23,42.805,6.029,4330,1995,195.577,59.810,13.288
2019-06-01T07:58:23,42.805,6.029,4330,1995,195.620,59.823,13.288
2019-06-01T08:01:23,42.805,6.029,4330,1995,195.606,59.819,13.288
2019-06-01T08:04:23,42.805,6.029,4330,1995,195.647,59.831,13.288
2019-06-01T08:07:23,42.805,6.029,4330,1995,195.664,59.836,13.288
2019-06-01T08:10:23,42.805,6.029,4330,1995,195.648,59.831,13.288
2019-06-01T08:13:23,42.805,6.029,4330,1995,195.608,59.819,13.287
2019-06-01T08:16:23,42.805,6.029,4330,1995,195.642,59.829,13.287
2019-06-01T08:19:23,42.805,6.029,4330,1995,195.661,59.835,13.287
2019-06-01T08:22:23,42.805,6.029,4330,1995,195.692,59.844,13.287
2019-06-01T08:25:23,42.805,6.029,4330,1995,195.692,59.844,13.287
2019-06-01T08:28:23,42.805,6.029,4330,1995,195.705,59.848,13.287
2019-06-01T08:31:23,42.805,6.029,4330,1995,195.692,59.844,13.287
2019-06-01T08:34:23,42.805,6.029,4330,1995,195.775,59.870,13.287
2019-06-01T08:37:23,42.805,6.029,4330,1995,195.713,59.851,13.287
2019-06-01T08:40:23,42.805,6.029,4330,1995,195.761,59.865,13.287
2019-06-01T08:43:23,42.805,6.029,4330,1995,195.741,59.859,13.287
2019-06-01T08:46:23,42.805,6.029,4330,1995,195.741,59.859,13.287
2019-06-01T08:49:23,42.805,6.029,4330,1995,195.787,59.873,13.287
2019-06-01T08:52:23,42.805,6.029,4330,1995,195.705,59.848,13.287
2019-06-01T08:55:23,42.805,6.029,4330,1995,195.713,59.851,13.287
2019-06-01T08:58:23,42.805,6.029,4330,1995,195.744,59.860,13.287
2019-06-01T09:01:23,42.805,6.029,4330,1995,195.751,59.862,13.287
2019-06-01T09:04:23,42.805,6.029,4330,1995,195.706,59.849,13.287
2019-06-01T09:07:23,42.805,6.029,4330,1995,195.733,59.857,13.287
2019-06-01T09:10:23,42.805,6.029,4330,1995,195.743,59.860,13.287
2019-06-01T09:13:23,42.805,6.029,4330,1995,195.709,59.850,13.287
2019-06-01T09:16:23,42.805,6.029,4330,1995,195.745,59.861,13.287
2019-06-01T09:19:23,42.805,6.029,4330,1995,195.793,59.875,13.287
2019-06-01T09:22:23,42.805,6.029,4330,1995,195.759,59.865,13.287
2019-06-01T09:25:23,42.805,6.029,4330,1995,195.734,59.857,13.288
2019-06-01T09:28:23,42.805,6.029,4330,1995,195.739,59.859,13.288
2019-06-01T09:31:23,42.805,6.029,4330,1995,195.708,59.850,13.288
2019-06-01T09:34:23,42.805,6.029,4330,1995,195.727,59.856,13.288
2019-06-01T09:37:23,42.805,6.029,4330,1995,195.738,59.859,13.288
2019-06-01T09:40:23,42.805,6.029,4330,1995,195.706,59.849,13.288
2019-06-01T09:43:23,42.805,6.029,4330,1995,195.707,59.850,13.288
2019-06-01T09:46:23,42.805,6.029,4330,1995,195.718,59.853,13.288
2019-06-01T09:49:23,42.805,6.029,4330,1995,195.701,59.848,13.288
2019-06-01T09:52:23,42.805,6.029,4330,1995,195.701,59.848,13.288
2019-06-01T09:55:23,42.805,6.029,4330,1995,195.735,59.858,13.288
2019-06-01T09:58:23,42.805,6.029,4330,1995,195.693,59.846,13.288
2019-06-01T10:01:23,42.805,6.029,4330,1995,195.690,59.845,13.288
2019-06-01T10:04:23,42.805,6.029,4330,1995,195.696,59.847,13.288
2019-06-01T10:07:23,42.805,6.029,4330,1995,195.698,59.847,13.288
2019-06-01T10:10:23,42.805,6.029,4330,1995,195.672,59.839,13.288
2019-06-01T10:13:23,42.805,6.029,4330,1995,195.679,59.841,13.288
2019-06-01T10:16:23,42.805,6.029,4330,1995,195.708,59.850,13.288
2019-06-01T10:19:23,42.805,6.029,4330,1995,195.615,59.821,13.288
2019-06-01T10:22:23,42.805,6.029,4330,1995,195.673,59.839,13.288
2019-06-01T10:25:23,42.805,6.029,4330,1995,195.663,59.836,13.288
2019-06-01T10:28:23,42.805,6.029,4330,1995,195.694,59.845,13.287
2019-06-01T10:31:23,42.805,6.029,4330,1995,195.642,59.829,13.287
2019-06-01T10:34:23,42.805,6.029,4330,1995,195.669,59.837,13.287
2019-06-01T10:37:23,42.805,6.029,4330,1995,195.606,59.818,13.287
2019-06-01T10:40:23,42.805,6.029,4330,1995,195.591,59.813,13.287
2019-06-01T10:43:23,42.805,6.029,4330,1995,195.627,59.825,13.287
2019-06-01T10:46:23,42.805,6.029,4330,1995,195.582,59.810,13.287
2019-06-01T10:49:23,42.805,6.029,4330,1995,195.633,59.826,13.287
2019-06-01T10:52:23,42.805,6.029,4330,1995,195.699,59.846,13.287
2019-06-01T10:55:23,42.805,6.029,4330,1995,195.625,59.824,13.287
2019-06-01T10:58:23,42.805,6.029,4330,1995,195.622,59.823,13.287
2019-06-01T11:01:23,42.805,6.029,4330,1995,195.655,59.833,13.287
2019-06-01T11:04:23,42.805,6.029,4330,1995,195.624,59.824,13.287
2019-06-01T11:07:23,42.805,6.029,4330,1995,195.646,59.830,13.287
2019-06-01T11:10:23,42.805,6.029,4330,1995,195.603,59.817,13.287
2019-06-01T11:13:23,42.805,6.029,4330,1995,195.656,59.833,13.287
2019-06-01T11:16:23,42.805,6.029,4330,1995,195.614,59.820,13.287
2019-06-01T11:19:23,42.805,6.029,4330,1995,195.622,59.823,13.287
2019-06-01T11:22:23,42.805,6.029,4330,1995,195.634,59.827,13.287
2019-06-01T11:25:23,42.805,6.029,4330,1995,195.612,59.820,13.287
2019-06-01T11:28:23,42.805,6.029,4330,1995,195.690,59.844,13.288
2019-06-01T11:31:23,42.805,6.029,4330,1995,195.649,59.831,13.287
2019-06-01T11:34:23,42.805,6.029,4330,1995,195.620,59.823,13.288
2019-06-01T11:37:23,42.805,6.029,4330,1995,195.673,59.839,13.288
2019-06-01T11:40:23,42.805,6.029,4330,1995,195.659,59.835,13.287
2019-06-01T11:43:23,42.805,6.029,4330,1995,195.700,59.847,13.288
2019-06-01T11:46:23,42.805,6.029,4330,1995,195.639,59.829,13.288
2019-06-01T11:49:23,42.805,6.029,4330,1995,195.640,59.829,13.288
2019-06-01T11:52:23,42.805,6.029,4330,1995,195.633,59.827,13.288
2019-06-01T11:55:23,42.805,6.029,4330,1995,195.621,59.823,13.288
2019-06-01T11:58:23,42.805,6.029,4330,1995,195.702,59.848,13.288
2019-06-01T12:01:23,42.805,6.029,4330,1995,195.672,59.839,13.288
2019-06-01T12:04:23,42.805,6.029,4330,1995,195.734,59.858,13.288
2019-06-01T12:07:23,42.805,6.029,4330,1995,195.679,59.841,13.288
2019-06-01T12:10:23,42.805,6.029,4330,1995,195.669,59.838,13.288
2019-06-01T12:13:23,42.805,6.029,4330,1995,195.652,59.833,13.288
2019-06-01T12:16:23,42.805,6.029,4330,1995,195.602,59.818,13.288
2019-06-01T12:19:23,42.805,6.029,4330,1995,195.597,59.816,13.288
2019-06-01T12:22:23,42.805,6.029,4330,1995,195.633,59.827,13.288
2019-06-01T12:25:23,42.805,6.029,4330,1995,195.611,59.820,13.288
2019-06-01T12:28:23,42.805,6.029,4330,1995,195.590,59.814,13.288
2019-06-01T12:31:23,42.805,6.029,4330,1995,195.587,59.812,13.287
2019-06-01T12:34:23,42.805,6.029,4330,1995,195.660,59.835,13.287
2019-06-01T12:37:23,42.805,6.029,4330,1995,195.589,59.813,13.288
2019-06-01T12:40:23,42.805,6.029,4330,1995,195.634,59.827,13.287
2019-06-01T12:43:23,42.805,6.029,4330,1995,195.661,59.835,13.287
2019-06-01T12:46:23,42.805,6.029,4330,1995,195.618,59.822,13.287
2019-06-01T12:49:23,42.805,6.029,4330,1995,195.627,59.825,13.287
2019-06-01T12:52:23,42.805,6.029,4330,1995,195.611,59.819,13.287
2019-06-01T12:55:23,42.805,6.029,4330,1995,195.653,59.832,13.287
2019-06-01T12:58:23,42.805,6.029,4330,1995,195.674,59.838,13.287
2019-06-01T13:01:23,42.805,6.029,4330,1995,195.628,59.824,13.287
2019-06-01T13:04:23,42.805,6.029,4330,1995,195.665,59.836,13.287
2019-06-01T13:07:23,42.805,6.029,4330,1995,195.649,59.831,13.287
2019-06-01T13:10:23,42.805,6.029,4330,1995,195.653,59.832,13.287
2019-06-01T13:13:23,42.805,6.029,4330,1995,195.651,59.832,13.287
2019-06-01T13:16:23,42.805,6.029,4330,1995,195.644,59.830,13.287
2019-06-01T13:19:23,42.805,6.029,4330,1995,195.627,59.824,13.287
2019-06-01T13:22:23,42.805,6.029,4330,1995,195.668,59.837,13.287
2019-06-01T13:25:23,42.805,6.029,4330,1995,195.611,59.819,13.287
2019-06-01T13:28:23,42.805,6.029,4330,1995,195.672,59.838,13.287
2019-06-01T13:31:23,42.805,6.029,4330,1995,195.651,59.832,13.287
2019-06-01T13:34:23,42.805,6.029,4330,1995,195.664,59.836,13.287
2019-06-01T13:37:23,42.805,6.029,4330,1995,195.744,59.860,13.287
2019-06-01T13:40:23,42.805,6.029,4330,1995,195.715,59.852,13.287
2019-06-01T13:43:23,42.805,6.029,4330,1995,195.739,59.859,13.287
2019-06-01T13:46:23,42.805,6.029,4330,1995,195.694,59.845,13.287
2019-06-01T13:49:23,42.805,6.029,4330,1995,195.673,59.839,13.288
2019-06-01T13:52:23,42.805,6.029,4330,1995,195.653,59.833,13.288
2019-06-01T13:55:23,42.805,6.029,4330,1995,195.715,59.852,13.288
2019-06-01T13:58:23,42.805,6.029,4330,1995,195.722,59.854,13.288
2019-06-01T14:01:23,42.805,6.029,4330,1995,195.718,59.853,13.288
2019-06-01T14:04:23,42.805,6.029,4330,1995,195.701,59.848,13.288
2019-06-01T14:07:23,42.805,6.029,4330,1995,195.687,59.843,13.288
2019-06-01T14:10:23,42.805,6.029,4330,1995,195.719,59.854,13.288
2019-06-01T14:13:23,42.805,6.029,4330,1995,195.675,59.840,13.288
2019-06-01T14:16:23,42.805,6.029,4330,1995,195.716,59.852,13.288
2019-06-01T14:19:23,42.805,6.029,4330,1995,195.675,59.840,13.288
2019-06-01T14:22:23,42.805,6.029,4330,1995,195.664,59.837,13.288
2019-06-01T14:25:23,42.805,6.029,4330,1995,195.660,59.836,13.288
2019-06-01T14:28:23,42.805,6.029,4330,1995,195.658,59.835,13.288
2019-06-01T14:31:23,42.805,6.029,4330,1995,195.667,59.837,13.288
2019-06-01T14:34:23,42.805,6.029,4330,1995,195.685,59.843,13.288
2019-06-01T14:37:23,42.805,6.029,4330,1995,195.728,59.856,13.288
2019-06-01T14:40:23,42.805,6.029,4330,1995,195.637,59.828,13.288
2019-06-01T14:43:23,42.805,6.029,4330,1995,195.688,59.844,13.288
2019-06-01T14:46:23,42.805,6.029,4330,1995,195.688,59.843,13.287
2019-06-01T14:49:23,42.805,6.029,4330,1995,195.680,59.841,13.287
2019-06-01T14:52:23,42.805,6.029,4330,1995,195.678,59.840,13.287
2019-06-01T14:55:23,42.805,6.029,4330,1995,195.725,59.854,13.287
2019-06-01T14:58:23,42.805,6.029,4330,1995,195.674,59.839,13.287
2019-06-01T15:01:23,42.805,6.029,4330,1995,195.730,59.856,13.287
2019-06-01T15:04:23,42.805,6.029,4330,1995,195.685,59.842,13.287
2019-06-01T15:07:23,42.805,6.029,4330,1995,195.705,59.848,13.287
2019-06-01T15:10:23,42.805,6.029,4330,1995,195.734,59.857,13.287
2019-06-01T15:13:23,42.805,6.029,4330,1995,195.666,59.836,13.287
2019-06-01T15:16:23,42.805,6.029,4330,1995,195.740,59.859,13.287
2019-06-01T15:19:23,42.805,6.029,4330,1995,195.667,59.836,13.287
2019-06-01T15:22:23,42.805,6.029,4330,1995,195.715,59.851,13.287
2019-06-01T15:25:23,42.805,6.029,4330,1995,195.681,59.841,13.287
2019-06-01T15:28:23,42.805,6.029,4330,1995,195.683,59.842,13.287
2019-06-01T15:31:23,42.805,6.029,4330,1995,195.704,59.848,13.287
2019-06-01T15:34:23,42.805,6.029,4330,1995,195.716,59.852,13.287
2019-06-01T15:37:23,42.805,6.029,4330,1995,195.649,59.831,13.287
2019-06-01T15:40:23,42.805,6.029,4330,1995,195.699,59.847,13.287
2019-06-01T15:43:23,42.805,6.029,4330,1995,195.699,59.846,13.287
2019-06-01T15:46:23,42.805,6.029,4330,1995,195.705,59.848,13.287
2019-06-01T15:49:23,42.805,6.029,4330,1995,195.698,59.846,13.287
2019-06-01T15:52:23,42.805,6.029,4330,1995,195.715,59.852,13.287
2019-06-01T15:55:23,42.805,6.029,4330,1995,195.689,59.844,13.288
2019-06-01T15:58:23,42.805,6.029,4330,1995,195.651,59.832,13.287
2019-06-01T16:01:23,42.805,6.029,4330,1995,195.675,59.840,13.288
2019-06-01T16:04:23,42.805,6.029,4330,1995,195.723,59.854,13.288
2019-06-01T16:07:23,42.805,6.029,4330,1995,195.676,59.840,13.288
2019-06-01T16:10:23,42.805,6.029,4330,1995,195.639,59.829,13.288
2019-06-01T16:13:23,42.805,6.029,4330,1995,195.628,59.825,13.288
2019-06-01T16:16:23,42.805,6.029,4330,1995,195.679,59.841,13.288
2019-06-01T16:19:23,42.805,6.029,4330,1995,195.669,59.838,13.288
2019-06-01T16:22:23,42.805,6.029,4330,1995,195.659,59.835,13.288
2019-06-01T16:25:23,42.805,6.029,4330,1995,195.694,59.846,13.288
2019-06-01T16:28:23,42.805,6.029,4330,1995,195.662,59.836,13.288
2019-06-01T16:31:23,42.805,6.029,4330,1995,195.666,59.837,13.288
2019-06-01T16:34:23,42.805,6.029,4330,1995,195.664,59.837,13.288
2019-06-01T16:37:23,42.805,6.029,4330,1995,195.690,59.844,13.288
2019-06-01T16:40:23,42.805,6.029,4330,1995,195.642,59.830,13.288
2019-06-01T16:43:23,42.805,6.029,4330,1995,195.628,59.826,13.288
2019-06-01T16:46:23,42.805,6.029,4330,1995,195.639,59.829,13.288
2019-06-01T16:49:23,42.805,6.029,4330,1995,195.668,59.838,13.288
2019-06-01T16:52:23,42.805,6.029,4330,1995,195.686,59.843,13.288
2019-06-01T16:55:23,42.805,6.029,4330,1995,195.658,59.834,13.288
2019-06-01T16:58:23,42.805,6.029,4330,1995,195.639,59.828,13.288
2019-06-01T17:01:23,42.805,6.029,4330,1995,195.587,59.812,13.287
2019-06-01T17:04:23,42.805,6.029,4330,1995,195.643,59.830,13.287
2019-06-01T17:07:23,42.805,6.029,4330,1995,195.702,59.848,13.287
2019-06-01T17:10:23,42.805,6.029,4330,1995,195.633,59.826,13.287
2019-06-01T17:13:23,42.805,6.029,4330,1995,195.715,59.851,13.287
2019-06-01T17:16:23,42.805,6.029,4330,1995,195.680,59.841,13.287
2019-06-01T17:19:23,42.805,6.029,4330,1995,195.728,59.855,13.287
2019-06-01T17:22:23,42.805,6.029,4330,1995,195.669,59.837,13.287
2019-06-01T17:25:23,42.805,6.029,4330,1995,195.671,59.838,13.287
2019-06-01T17:28:23,42.805,6.029,4330,1995,195.675,59.839,13.287
2019-06-01T17:31:23,42.805,6.029,4330,1995,195.645,59.830,13.287
2019-06-01T17:34:23,42.805,6.029,4330,1995,195.679,59.840,13.287
2019-06-01T17:37:23,42.805,6.029,4330,1995,195.621,59.823,13.287
2019-06-01T17:40:23,42.805,6.029,4330,1995,195.607,59.818,13.287
2019-06-01T17:43:23,42.805,6.029,4330,1995,195.659,59.834,13.287
2019-06-01T17:46:23,42.805,6.029,4330,1995,195.643,59.829,13.287
2019-06-01T17:49:23,42.805,6.029,4330,1995,195.677,59.840,13.287
2019-06-01T17:52:23,42.805,6.029,4330,1995,195.686,59.843,13.287
2019-06-01T17:55:23,42.805,6.029,4330,1995,195.599,59.816,13.287
2019-06-01T17:58:23,42.805,6.029,4330,1995,195.636,59.828,13.288
2019-06-01T18:01:23,42.805,6.029,4330,1995,195.626,59.824,13.287
2019-06-01T18:04:23,42.805,6.029,4330,1995,195.682,59.842,13.288
2019-06-01T18:07:23,42.805,6.029,4330,1995,195.711,59.850,13.287